Year,Month,Day,Hour,Minute,Value (Times are PST for temperature in C)
2023,03,26,00,00,2.10
2023,03,26,00,02,2.10
2023,03,26,00,03,2.10
2023,03,26,00,04,2.10
2023,03,26,00,05,2.10
2023,03,26,00,06,2.10
2023,03,26,00,07,2.10
2023,03,26,00,08,2.20
2023,03,26,00,09,2.20
2023,03,26,00,10,2.20
2023,03,26,00,11,2.20
2023,03,26,00,12,2.20
2023,03,26,00,13,2.20
2023,03,26,00,14,2.20
2023,03,26,00,15,2.10
2023,03,26,00,16,2.10
2023,03,26,00,17,2.10
2023,03,26,00,18,2.10
2023,03,26,00,19,2.00
2023,03,26,00,20,1.90
2023,03,26,00,21,1.90
2023,03,26,00,22,1.90
2023,03,26,00,23,1.90
2023,03,26,00,24,2.00
2023,03,26,00,25,2.00
2023,03,26,00,26,2.00
2023,03,26,00,27,2.00
2023,03,26,00,28,2.00
2023,03,26,00,29,1.90
2023,03,26,00,30,1.90
2023,03,26,00,31,1.90
2023,03,26,00,32,1.90
2023,03,26,00,33,1.90
2023,03,26,00,34,1.90
2023,03,26,00,35,1.90
2023,03,26,00,36,1.90
2023,03,26,00,37,1.90
2023,03,26,00,38,1.90
2023,03,26,00,39,1.80
2023,03,26,00,40,1.80
2023,03,26,00,41,1.80
2023,03,26,00,43,1.70
2023,03,26,00,44,1.70
2023,03,26,00,45,1.70
2023,03,26,00,46,1.70
2023,03,26,00,47,1.70
2023,03,26,00,48,1.60
2023,03,26,00,49,1.60
2023,03,26,00,50,1.60
2023,03,26,00,51,1.60
2023,03,26,00,52,1.50
2023,03,26,00,54,1.40
2023,03,26,00,55,1.40
2023,03,26,00,56,1.40
2023,03,26,00,57,1.30
2023,03,26,00,58,1.30
2023,03,26,00,59,1.30
2023,03,26,01,00,1.30
2023,03,26,01,02,1.30
2023,03,26,01,03,1.30
2023,03,26,01,05,1.20
2023,03,26,01,06,1.20
2023,03,26,01,07,1.20
2023,03,26,01,08,1.20
2023,03,26,01,09,1.20
2023,03,26,01,10,1.20
2023,03,26,01,11,1.20
2023,03,26,01,12,1.10
2023,03,26,01,14,1.10
2023,03,26,01,15,1.10
2023,03,26,01,16,1.10
2023,03,26,01,17,1.10
2023,03,26,01,19,1.10
2023,03,26,01,20,1.10
2023,03,26,01,22,1.10
2023,03,26,01,23,1.10
2023,03,26,01,24,1.10
2023,03,26,01,25,1.10
2023,03,26,01,26,1.10
2023,03,26,01,27,1.10
2023,03,26,01,28,1.10
2023,03,26,01,30,1.10
2023,03,26,01,31,1.00
2023,03,26,01,32,1.00
2023,03,26,01,33,1.00
2023,03,26,01,34,1.00
2023,03,26,01,35,0.90
2023,03,26,01,36,0.90
2023,03,26,01,37,0.90
2023,03,26,01,38,0.90
2023,03,26,01,39,0.90
2023,03,26,01,40,0.90
2023,03,26,01,42,0.80
2023,03,26,01,43,0.80
2023,03,26,01,45,0.80
2023,03,26,01,47,0.80
2023,03,26,01,48,0.80
2023,03,26,01,50,0.80
2023,03,26,01,51,0.80
2023,03,26,01,52,0.80
2023,03,26,01,53,0.80
2023,03,26,01,54,0.80
2023,03,26,01,55,0.80
2023,03,26,01,56,0.80
2023,03,26,01,57,0.70
2023,03,26,01,58,0.70
2023,03,26,01,59,0.70
2023,03,26,02,00,0.70
2023,03,26,02,01,0.70
2023,03,26,02,02,0.70
2023,03,26,02,03,0.70
2023,03,26,02,04,0.70
2023,03,26,02,05,0.70
2023,03,26,02,06,0.70
2023,03,26,02,07,0.80
2023,03,26,02,08,0.70
2023,03,26,02,09,0.80
2023,03,26,02,10,0.70
2023,03,26,02,11,0.70
2023,03,26,02,12,0.70
2023,03,26,02,13,0.70
2023,03,26,02,14,0.70
2023,03,26,02,15,0.70
2023,03,26,02,16,0.70
2023,03,26,02,17,0.70
2023,03,26,02,18,0.70
2023,03,26,02,19,0.70
2023,03,26,02,20,0.70
2023,03,26,02,21,0.60
2023,03,26,02,23,0.60
2023,03,26,02,25,0.60
2023,03,26,02,26,0.60
2023,03,26,02,27,0.60
2023,03,26,02,28,0.60
2023,03,26,02,29,0.60
2023,03,26,02,30,0.60
2023,03,26,02,31,0.60
2023,03,26,02,33,0.60
2023,03,26,02,34,0.60
2023,03,26,02,36,0.60
2023,03,26,02,37,0.60
2023,03,26,02,38,0.60
2023,03,26,02,39,0.60
2023,03,26,02,40,0.60
2023,03,26,02,41,0.60
2023,03,26,02,42,0.70
2023,03,26,02,43,0.70
2023,03,26,02,44,0.70
2023,03,26,02,45,0.70
2023,03,26,02,47,0.70
2023,03,26,02,48,0.70
2023,03,26,02,49,0.70
2023,03,26,02,50,0.80
2023,03,26,02,52,0.80
2023,03,26,02,53,0.80
2023,03,26,02,54,0.80
2023,03,26,02,55,0.80
2023,03,26,02,56,0.80
2023,03,26,02,57,0.80
2023,03,26,02,58,0.80
2023,03,26,02,59,0.80
2023,03,26,03,00,0.80
2023,03,26,03,01,0.90
2023,03,26,03,02,0.90
2023,03,26,03,04,0.90
2023,03,26,03,05,0.90
2023,03,26,03,08,1.00
2023,03,26,03,10,1.00
2023,03,26,03,11,1.10
2023,03,26,03,12,1.10
2023,03,26,03,14,1.10
2023,03,26,03,15,1.10
2023,03,26,03,16,1.10
2023,03,26,03,17,1.10
2023,03,26,03,18,1.10
2023,03,26,03,19,1.10
2023,03,26,03,20,1.10
2023,03,26,03,21,1.10
2023,03,26,03,22,1.10
2023,03,26,03,23,1.20
2023,03,26,03,24,1.20
2023,03,26,03,25,1.20
2023,03,26,03,26,1.20
2023,03,26,03,28,1.20
2023,03,26,03,30,1.30
2023,03,26,03,31,1.30
2023,03,26,03,33,1.30
2023,03,26,03,34,1.30
2023,03,26,03,35,1.30
2023,03,26,03,36,1.30
2023,03,26,03,37,1.30
2023,03,26,03,38,1.30
2023,03,26,03,39,1.30
2023,03,26,03,40,1.40
2023,03,26,03,41,1.40
2023,03,26,03,42,1.40
2023,03,26,03,44,1.40
2023,03,26,03,45,1.40
2023,03,26,03,47,1.40
2023,03,26,03,48,1.40
2023,03,26,03,49,1.40
2023,03,26,03,50,1.50
2023,03,26,03,51,1.40
2023,03,26,03,53,1.50
2023,03,26,03,54,1.50
2023,03,26,03,55,1.60
2023,03,26,03,56,1.60
2023,03,26,03,57,1.60
2023,03,26,03,59,1.60
2023,03,26,04,00,1.60
2023,03,26,04,02,1.60
2023,03,26,04,04,1.60
2023,03,26,04,05,1.60
2023,03,26,04,06,1.60
2023,03,26,04,07,1.70
2023,03,26,04,08,1.60
2023,03,26,04,09,1.60
2023,03,26,04,10,1.70
2023,03,26,04,11,1.70
2023,03,26,04,12,1.70
2023,03,26,04,13,1.70
2023,03,26,04,14,1.70
2023,03,26,04,15,1.70
2023,03,26,04,16,1.70
2023,03,26,04,17,1.70
2023,03,26,04,18,1.70
2023,03,26,04,19,1.70
2023,03,26,04,20,1.70
2023,03,26,04,21,1.70
2023,03,26,04,22,1.70
2023,03,26,04,23,1.70
2023,03,26,04,24,1.70
2023,03,26,04,25,1.70
2023,03,26,04,26,1.70
2023,03,26,04,27,1.80
2023,03,26,04,28,1.80
2023,03,26,04,30,1.80
2023,03,26,04,31,1.80
2023,03,26,04,32,1.80
2023,03,26,04,33,1.80
2023,03,26,04,34,1.80
2023,03,26,04,35,1.80
2023,03,26,04,36,1.80
2023,03,26,04,37,1.80
2023,03,26,04,39,1.80
2023,03,26,04,40,1.80
2023,03,26,04,41,1.80
2023,03,26,04,42,1.80
2023,03,26,04,44,1.80
2023,03,26,04,45,1.80
2023,03,26,04,46,1.80
2023,03,26,04,47,1.80
2023,03,26,04,48,1.90
2023,03,26,04,50,1.90
2023,03,26,04,51,1.90
2023,03,26,04,52,1.90
2023,03,26,04,53,1.90
2023,03,26,04,54,1.90
2023,03,26,04,55,1.90
2023,03,26,04,56,1.90
2023,03,26,04,57,1.90
2023,03,26,04,58,1.90
2023,03,26,04,59,1.90
2023,03,26,05,00,1.90
2023,03,26,05,01,1.90
2023,03,26,05,02,1.90
2023,03,26,05,03,1.90
2023,03,26,05,04,1.90
2023,03,26,05,05,1.90
2023,03,26,05,07,1.90
2023,03,26,05,08,1.90
2023,03,26,05,09,1.90
2023,03,26,05,10,1.90
2023,03,26,05,12,2.00
2023,03,26,05,13,1.90
2023,03,26,05,14,2.00
2023,03,26,05,15,2.00
2023,03,26,05,16,2.00
2023,03,26,05,17,2.00
2023,03,26,05,19,2.00
2023,03,26,05,20,2.00
2023,03,26,05,21,2.00
2023,03,26,05,22,2.00
2023,03,26,05,24,2.00
2023,03,26,05,25,2.10
2023,03,26,05,26,2.10
2023,03,26,05,27,2.10
2023,03,26,05,28,2.10
2023,03,26,05,30,2.00
2023,03,26,05,31,2.00
2023,03,26,05,33,1.90
2023,03,26,05,35,1.90
2023,03,26,05,36,1.90
2023,03,26,05,38,1.90
2023,03,26,05,40,1.90
2023,03,26,05,41,1.90
2023,03,26,05,42,1.90
2023,03,26,05,43,1.90
2023,03,26,05,44,1.90
2023,03,26,05,45,1.90
2023,03,26,05,46,1.80
2023,03,26,05,47,1.80
2023,03,26,05,48,1.80
2023,03,26,05,49,1.80
2023,03,26,05,50,1.80
2023,03,26,05,51,1.80
2023,03,26,05,52,1.80
2023,03,26,05,53,1.80
2023,03,26,05,55,1.80
2023,03,26,05,56,1.80
2023,03,26,05,57,1.80
2023,03,26,05,58,1.80
2023,03,26,05,59,1.80
2023,03,26,06,00,1.80
2023,03,26,06,01,1.80
2023,03,26,06,02,1.80
2023,03,26,06,03,1.80
2023,03,26,06,04,1.80
2023,03,26,06,05,1.80
2023,03,26,06,07,1.80
2023,03,26,06,08,1.80
2023,03,26,06,09,1.80
2023,03,26,06,10,1.80
2023,03,26,06,12,1.70
2023,03,26,06,13,1.70
2023,03,26,06,14,1.70
2023,03,26,06,15,1.70
2023,03,26,06,16,1.70
2023,03,26,06,17,1.70
2023,03,26,06,19,1.70
2023,03,26,06,20,1.70
2023,03,26,06,21,1.70
2023,03,26,06,23,1.70
2023,03,26,06,24,1.70
2023,03,26,06,25,1.70
2023,03,26,06,26,1.70
2023,03,26,06,27,1.70
2023,03,26,06,29,1.70
2023,03,26,06,30,1.70
2023,03,26,06,32,1.70
2023,03,26,06,34,1.80
2023,03,26,06,35,1.80
2023,03,26,06,37,1.80
2023,03,26,06,38,1.80
2023,03,26,06,39,1.80
2023,03,26,06,43,1.80
2023,03,26,06,44,1.80
2023,03,26,06,45,1.80
2023,03,26,06,46,1.80
2023,03,26,06,47,1.80
2023,03,26,06,48,1.80
2023,03,26,06,49,1.80
2023,03,26,06,50,1.80
2023,03,26,06,51,1.80
2023,03,26,06,52,1.80
2023,03,26,06,54,1.80
2023,03,26,06,55,1.80
2023,03,26,06,57,1.80
2023,03,26,06,58,1.80
2023,03,26,06,59,1.80
2023,03,26,07,01,1.80
2023,03,26,07,03,1.80
2023,03,26,07,05,1.80
2023,03,26,07,06,1.80
2023,03,26,07,08,1.80
2023,03,26,07,09,1.80
2023,03,26,07,10,1.80
2023,03,26,07,11,1.80
2023,03,26,07,12,1.80
2023,03,26,07,13,1.80
2023,03,26,07,14,1.80
2023,03,26,07,15,1.80
2023,03,26,07,16,1.80
2023,03,26,07,17,1.80
2023,03,26,07,19,1.80
2023,03,26,07,20,1.80
2023,03,26,07,21,1.80
2023,03,26,07,22,1.80
2023,03,26,07,23,1.80
2023,03,26,07,24,1.80
2023,03,26,07,25,1.80
2023,03,26,07,26,1.80
2023,03,26,07,27,1.80
2023,03,26,07,28,1.80
2023,03,26,07,29,1.80
2023,03,26,07,30,1.80
2023,03,26,07,31,1.80
2023,03,26,07,32,1.80
2023,03,26,07,33,1.80
2023,03,26,07,35,1.80
2023,03,26,07,36,1.80
2023,03,26,07,37,1.70
2023,03,26,07,38,1.70
2023,03,26,07,39,1.70
2023,03,26,07,41,1.70
2023,03,26,07,42,1.70
2023,03,26,07,43,1.70
2023,03,26,07,45,1.60
2023,03,26,07,46,1.60
2023,03,26,07,47,1.60
2023,03,26,07,48,1.60
2023,03,26,07,49,1.60
2023,03,26,07,50,1.60
2023,03,26,07,51,1.60
2023,03,26,07,52,1.60
2023,03,26,07,53,1.60
2023,03,26,07,55,1.50
2023,03,26,07,57,1.50
2023,03,26,07,58,1.50
2023,03,26,07,59,1.40
2023,03,26,08,00,1.40
2023,03,26,08,01,1.50
2023,03,26,08,02,1.50
2023,03,26,08,03,1.50
2023,03,26,08,05,1.60
2023,03,26,08,06,1.60
2023,03,26,08,08,1.60
2023,03,26,08,09,1.60
2023,03,26,08,10,1.60
2023,03,26,08,11,1.60
2023,03,26,08,12,1.60
2023,03,26,08,13,1.60
2023,03,26,08,14,1.60
2023,03,26,08,15,1.60
2023,03,26,08,16,1.70
2023,03,26,08,17,1.70
2023,03,26,08,18,1.70
2023,03,26,08,19,1.70
2023,03,26,08,20,1.70
2023,03,26,08,21,1.70
2023,03,26,08,22,1.70
2023,03,26,08,23,1.70
2023,03,26,08,24,1.70
2023,03,26,08,25,1.70
2023,03,26,08,26,1.70
2023,03,26,08,29,1.70
2023,03,26,08,30,1.70
2023,03,26,08,31,1.70
2023,03,26,08,34,1.70
2023,03,26,08,35,1.70
2023,03,26,08,36,1.70
2023,03,26,08,37,1.60
2023,03,26,08,38,1.60
2023,03,26,08,39,1.60
2023,03,26,08,40,1.60
2023,03,26,08,42,1.60
2023,03,26,08,43,1.60
2023,03,26,08,44,1.60
2023,03,26,08,45,1.60
2023,03,26,08,46,1.60
2023,03,26,08,47,1.60
2023,03,26,08,48,1.60
2023,03,26,08,49,1.60
2023,03,26,08,50,1.60
2023,03,26,08,51,1.70
2023,03,26,08,52,1.70
2023,03,26,08,53,1.70
2023,03,26,08,55,1.70
2023,03,26,08,56,1.70
2023,03,26,08,57,1.70
2023,03,26,08,58,1.70
2023,03,26,08,59,1.70
2023,03,26,09,00,1.70
2023,03,26,09,02,1.70
2023,03,26,09,03,1.70
2023,03,26,09,04,1.70
2023,03,26,09,05,1.70
2023,03,26,09,07,1.70
2023,03,26,09,08,1.70
2023,03,26,09,09,1.70
2023,03,26,09,10,1.80
2023,03,26,09,12,1.80
2023,03,26,09,14,1.80
2023,03,26,09,15,1.80
2023,03,26,09,16,1.80
2023,03,26,09,17,1.80
2023,03,26,09,19,1.80
2023,03,26,09,20,1.90
2023,03,26,09,21,1.90
2023,03,26,09,22,1.90
2023,03,26,09,24,1.90
2023,03,26,09,25,1.90
2023,03,26,09,26,1.90
2023,03,26,09,27,1.90
2023,03,26,09,28,1.90
2023,03,26,09,29,1.90
2023,03,26,09,30,1.90
2023,03,26,09,31,1.90
2023,03,26,09,32,1.90
2023,03,26,09,34,1.90
2023,03,26,09,35,2.00
2023,03,26,09,36,2.00
2023,03,26,09,37,2.10
2023,03,26,09,39,2.10
2023,03,26,09,41,2.20
2023,03,26,09,42,2.20
2023,03,26,09,43,2.20
2023,03,26,09,45,2.20
2023,03,26,09,46,2.30
2023,03,26,09,47,2.30
2023,03,26,09,48,2.30
2023,03,26,09,49,2.30
2023,03,26,09,50,2.30
2023,03,26,09,51,2.40
2023,03,26,09,52,2.40
2023,03,26,09,53,2.40
2023,03,26,09,54,2.40
2023,03,26,09,55,2.40
2023,03,26,09,56,2.40
2023,03,26,09,57,2.40
2023,03,26,09,58,2.40
2023,03,26,09,59,2.40
2023,03,26,10,00,2.40
2023,03,26,10,01,2.40
2023,03,26,10,03,2.40
2023,03,26,10,04,2.50
2023,03,26,10,06,2.60
2023,03,26,10,07,2.60
2023,03,26,10,08,2.60
2023,03,26,10,09,2.70
2023,03,26,10,10,2.60
2023,03,26,10,12,2.70
2023,03,26,10,13,2.70
2023,03,26,10,15,2.70
2023,03,26,10,16,2.70
2023,03,26,10,17,2.70
2023,03,26,10,18,2.80
2023,03,26,10,19,2.80
2023,03,26,10,20,2.80
2023,03,26,10,21,2.80
2023,03,26,10,22,2.90
2023,03,26,10,23,2.90
2023,03,26,10,24,2.90
2023,03,26,10,25,2.90
2023,03,26,10,26,2.90
2023,03,26,10,27,2.90
2023,03,26,10,28,2.90
2023,03,26,10,29,2.90
2023,03,26,10,30,2.90
2023,03,26,10,31,2.90
2023,03,26,10,32,2.90
2023,03,26,10,33,2.90
2023,03,26,10,35,2.90
2023,03,26,10,36,2.90
2023,03,26,10,37,3.00
2023,03,26,10,38,3.00
2023,03,26,10,39,3.00
2023,03,26,10,40,3.00
2023,03,26,10,41,3.00
2023,03,26,10,42,3.00
2023,03,26,10,43,3.10
2023,03,26,10,44,3.10
2023,03,26,10,45,3.10
2023,03,26,10,46,3.10
2023,03,26,10,47,3.10
2023,03,26,10,48,3.10
2023,03,26,10,49,3.10
2023,03,26,10,50,3.10
2023,03,26,10,51,3.10
2023,03,26,10,52,3.20
2023,03,26,10,53,3.20
2023,03,26,10,54,3.20
2023,03,26,10,55,3.30
2023,03,26,10,56,3.40
2023,03,26,10,57,3.40
2023,03,26,10,58,3.40
2023,03,26,10,59,3.50
2023,03,26,11,00,3.50
2023,03,26,11,02,3.50
2023,03,26,11,03,3.60
2023,03,26,11,05,3.60
2023,03,26,11,06,3.70
2023,03,26,11,08,3.70
2023,03,26,11,09,3.80
2023,03,26,11,10,3.80
2023,03,26,11,11,3.80
2023,03,26,11,12,3.90
2023,03,26,11,14,3.90
2023,03,26,11,15,4.00
2023,03,26,11,16,4.10
2023,03,26,11,17,4.10
2023,03,26,11,18,4.10
2023,03,26,11,20,4.20
2023,03,26,11,22,4.30
2023,03,26,11,23,4.30
2023,03,26,11,25,4.30
2023,03,26,11,26,4.30
2023,03,26,11,27,4.30
2023,03,26,11,28,4.40
2023,03,26,11,29,4.40
2023,03,26,11,30,4.50
2023,03,26,11,31,4.60
2023,03,26,11,32,4.60
2023,03,26,11,34,4.70
2023,03,26,11,36,4.90
2023,03,26,11,37,4.90
2023,03,26,11,38,5.10
2023,03,26,11,40,5.10
2023,03,26,11,41,5.10
2023,03,26,11,43,5.10
2023,03,26,11,45,5.10
2023,03,26,11,46,5.10
2023,03,26,11,47,5.10
2023,03,26,11,48,5.10
2023,03,26,11,49,5.10
2023,03,26,11,51,5.20
2023,03,26,11,52,5.20
2023,03,26,11,53,5.30
2023,03,26,11,54,5.30
2023,03,26,11,55,5.30
2023,03,26,11,56,5.40
2023,03,26,11,57,5.40
2023,03,26,11,58,5.40
2023,03,26,11,59,5.40
2023,03,26,12,00,5.40
2023,03,26,12,01,5.40
2023,03,26,12,02,5.50
2023,03,26,12,03,5.40
2023,03,26,12,05,5.40
2023,03,26,12,06,5.40
2023,03,26,12,07,5.40
2023,03,26,12,09,5.40
2023,03,26,12,10,5.50
2023,03,26,12,11,5.50
2023,03,26,12,12,5.60
2023,03,26,12,13,5.60
2023,03,26,12,14,5.70
2023,03,26,12,15,5.70
2023,03,26,12,16,5.80
2023,03,26,12,17,5.80
2023,03,26,12,18,5.80
2023,03,26,12,19,5.80
2023,03,26,12,20,5.80
2023,03,26,12,21,5.80
2023,03,26,12,22,5.80
2023,03,26,12,23,5.80
2023,03,26,12,24,5.80
2023,03,26,12,26,5.80
2023,03,26,12,27,5.80
2023,03,26,12,28,5.80
2023,03,26,12,29,5.80
2023,03,26,12,30,5.90
2023,03,26,12,31,5.90
2023,03,26,12,32,6.00
2023,03,26,12,34,6.10
2023,03,26,12,35,6.20
2023,03,26,12,36,6.20
2023,03,26,12,38,6.20
2023,03,26,12,39,6.20
2023,03,26,12,40,6.20
2023,03,26,12,42,6.30
2023,03,26,12,43,6.40
2023,03,26,12,44,6.40
2023,03,26,12,45,6.40
2023,03,26,12,46,6.60
2023,03,26,12,48,6.70
2023,03,26,12,49,6.70
2023,03,26,12,50,6.70
2023,03,26,12,51,6.70
2023,03,26,12,52,6.80
2023,03,26,12,53,6.80
2023,03,26,12,54,6.80
2023,03,26,12,56,6.90
2023,03,26,12,57,6.90
2023,03,26,12,58,6.80
2023,03,26,12,59,6.80
2023,03,26,13,00,6.80
2023,03,26,13,01,6.80
2023,03,26,13,02,6.80
2023,03,26,13,03,6.90
2023,03,26,13,04,6.90
2023,03,26,13,05,6.80
2023,03,26,13,06,6.90
2023,03,26,13,08,6.90
2023,03,26,13,10,7.00
2023,03,26,13,11,7.00
2023,03,26,13,12,7.10
2023,03,26,13,13,7.10
2023,03,26,13,14,7.10
2023,03,26,13,16,7.20
2023,03,26,13,17,7.20
2023,03,26,13,19,7.30
2023,03,26,13,20,7.20
2023,03,26,13,21,7.20
2023,03,26,13,22,7.20
2023,03,26,13,23,7.30
2023,03,26,13,24,7.30
2023,03,26,13,25,7.30
2023,03,26,13,27,7.30
2023,03,26,13,28,7.30
2023,03,26,13,30,7.40
2023,03,26,13,31,7.40
2023,03,26,13,32,7.40
2023,03,26,13,33,7.40
2023,03,26,13,34,7.40
2023,03,26,13,37,7.40
2023,03,26,13,38,7.40
2023,03,26,13,39,7.40
2023,03,26,13,40,7.40
2023,03,26,13,41,7.40
2023,03,26,13,42,7.40
2023,03,26,13,43,7.50
2023,03,26,13,44,7.50
2023,03,26,13,45,7.50
2023,03,26,13,47,7.60
2023,03,26,13,48,7.60
2023,03,26,13,49,7.60
2023,03,26,13,50,7.60
2023,03,26,13,51,7.50
2023,03,26,13,52,7.50
2023,03,26,13,53,7.50
2023,03,26,13,54,7.50
2023,03,26,13,55,7.50
2023,03,26,13,56,7.60
2023,03,26,13,58,7.60
2023,03,26,13,59,7.60
2023,03,26,14,00,7.70
2023,03,26,14,01,7.70
2023,03,26,14,02,7.70
2023,03,26,14,03,7.80
2023,03,26,14,04,7.80
2023,03,26,14,05,7.80
2023,03,26,14,07,7.90
2023,03,26,14,08,7.90
2023,03,26,14,10,7.90
2023,03,26,14,12,7.90
2023,03,26,14,13,7.90
2023,03,26,14,15,7.90
2023,03,26,14,16,7.90
2023,03,26,14,18,7.90
2023,03,26,14,19,7.90
2023,03,26,14,20,7.90
2023,03,26,14,22,7.90
2023,03,26,14,23,7.90
2023,03,26,14,25,7.90
2023,03,26,14,26,7.90
2023,03,26,14,27,7.90
2023,03,26,14,28,7.90
2023,03,26,14,29,7.90
2023,03,26,14,30,7.90
2023,03,26,14,31,7.90
2023,03,26,14,33,7.90
2023,03,26,14,34,7.90
2023,03,26,14,35,7.90
2023,03,26,14,36,8.00
2023,03,26,14,37,8.10
2023,03,26,14,39,8.10
2023,03,26,14,41,8.20
2023,03,26,14,42,8.20
2023,03,26,14,43,8.20
2023,03,26,14,44,8.30
2023,03,26,14,45,8.30
2023,03,26,14,47,8.30
2023,03,26,14,48,8.30
2023,03,26,14,50,8.40
2023,03,26,14,52,8.30
2023,03,26,14,53,8.30
2023,03,26,14,55,8.20
2023,03,26,14,56,8.20
2023,03,26,14,57,8.20
2023,03,26,14,58,8.10
2023,03,26,14,59,8.10
2023,03,26,15,01,8.10
2023,03,26,15,02,8.10
2023,03,26,15,03,8.10
2023,03,26,15,04,8.20
2023,03,26,15,06,8.20
2023,03,26,15,07,8.20
2023,03,26,15,09,8.20
2023,03,26,15,10,8.20
2023,03,26,15,12,8.20
2023,03,26,15,13,8.10
2023,03,26,15,14,8.10
2023,03,26,15,15,8.10
2023,03,26,15,16,8.10
2023,03,26,15,17,8.10
2023,03,26,15,18,8.10
2023,03,26,15,19,8.10
2023,03,26,15,20,8.20
2023,03,26,15,21,8.20
2023,03,26,15,23,8.20
2023,03,26,15,24,8.20
2023,03,26,15,25,8.20
2023,03,26,15,26,8.20
2023,03,26,15,27,8.20
2023,03,26,15,28,8.20
2023,03,26,15,29,8.20
2023,03,26,15,30,8.20
2023,03,26,15,31,8.20
2023,03,26,15,32,8.20
2023,03,26,15,34,8.20
2023,03,26,15,35,8.20
2023,03,26,15,36,8.20
2023,03,26,15,37,8.30
2023,03,26,15,38,8.30
2023,03,26,15,40,8.40
2023,03,26,15,41,8.40
2023,03,26,15,42,8.40
2023,03,26,15,43,8.40
2023,03,26,15,44,8.40
2023,03,26,15,45,8.40
2023,03,26,15,46,8.30
2023,03,26,15,47,8.40
2023,03,26,15,48,8.40
2023,03,26,15,49,8.40
2023,03,26,15,50,8.40
2023,03,26,15,51,8.40
2023,03,26,15,52,8.40
2023,03,26,15,53,8.40
2023,03,26,15,54,8.50
2023,03,26,15,55,8.50
2023,03,26,15,57,8.60
2023,03,26,15,58,8.60
2023,03,26,15,59,8.60
2023,03,26,16,00,8.60
2023,03,26,16,01,8.60
2023,03,26,16,02,8.60
2023,03,26,16,03,8.60
2023,03,26,16,04,8.70
2023,03,26,16,05,8.70
2023,03,26,16,06,8.70
2023,03,26,16,07,8.70
2023,03,26,16,08,8.70
2023,03,26,16,09,8.70
2023,03,26,16,10,8.70
2023,03,26,16,11,8.70
2023,03,26,16,13,8.80
2023,03,26,16,14,8.80
2023,03,26,16,15,8.80
2023,03,26,16,16,8.80
2023,03,26,16,17,8.80
2023,03,26,16,18,8.80
2023,03,26,16,19,8.80
2023,03,26,16,20,8.80
2023,03,26,16,21,8.80
2023,03,26,16,22,8.80
2023,03,26,16,23,8.80
2023,03,26,16,25,8.90
2023,03,26,16,27,9.00
2023,03,26,16,28,9.00
2023,03,26,16,30,9.10
2023,03,26,16,31,9.10
2023,03,26,16,33,8.90
2023,03,26,16,34,8.80
2023,03,26,16,35,8.70
2023,03,26,16,36,8.60
2023,03,26,16,37,8.60
2023,03,26,16,38,8.50
2023,03,26,16,39,8.40
2023,03,26,16,40,8.40
2023,03,26,16,41,8.30
2023,03,26,16,42,8.30
2023,03,26,16,43,8.30
2023,03,26,16,44,8.20
2023,03,26,16,45,8.20
2023,03,26,16,46,8.20
2023,03,26,16,47,8.10
2023,03,26,16,48,8.10
2023,03,26,16,49,8.10
2023,03,26,16,50,8.10
2023,03,26,16,51,8.10
2023,03,26,16,52,8.00
2023,03,26,16,53,8.00
2023,03,26,16,54,7.90
2023,03,26,16,55,7.80
2023,03,26,16,58,7.70
2023,03,26,16,59,7.70
2023,03,26,17,00,7.60
2023,03,26,17,02,7.60
2023,03,26,17,03,7.60
2023,03,26,17,04,7.60
2023,03,26,17,05,7.60
2023,03,26,17,06,7.60
2023,03,26,17,07,7.50
2023,03,26,17,08,7.50
2023,03,26,17,09,7.50
2023,03,26,17,10,7.50
2023,03,26,17,11,7.40
2023,03,26,17,12,7.40
2023,03,26,17,14,7.40
2023,03,26,17,15,7.40
2023,03,26,17,16,7.40
2023,03,26,17,18,7.40
2023,03,26,17,19,7.40
2023,03,26,17,20,7.40
2023,03,26,17,21,7.40
2023,03,26,17,22,7.30
2023,03,26,17,24,7.30
2023,03,26,17,25,7.20
2023,03,26,17,26,7.20
2023,03,26,17,27,7.10
2023,03,26,17,28,7.10
2023,03,26,17,29,7.10
2023,03,26,17,30,7.00
2023,03,26,17,31,6.90
2023,03,26,17,32,6.90
2023,03,26,17,33,6.80
2023,03,26,17,36,6.70
2023,03,26,17,37,6.70
2023,03,26,17,38,6.60
2023,03,26,17,39,6.60
2023,03,26,17,40,6.50
2023,03,26,17,42,6.40
2023,03,26,17,43,6.30
2023,03,26,17,44,6.30
2023,03,26,17,45,6.30
2023,03,26,17,46,6.20
2023,03,26,17,47,6.20
2023,03,26,17,49,6.10
2023,03,26,17,50,6.10
2023,03,26,17,51,6.10
2023,03,26,17,52,6.10
2023,03,26,17,53,6.10
2023,03,26,17,54,6.10
2023,03,26,17,55,6.00
2023,03,26,17,57,5.90
2023,03,26,17,58,5.90
2023,03,26,17,59,5.90
2023,03,26,18,00,5.90
2023,03,26,18,01,5.90
2023,03,26,18,02,5.90
2023,03,26,18,04,5.90
2023,03,26,18,05,5.90
2023,03,26,18,06,5.90
2023,03,26,18,07,5.90
2023,03,26,18,09,5.90
2023,03,26,18,10,5.90
2023,03,26,18,12,5.80
2023,03,26,18,13,5.90
2023,03,26,18,15,5.90
2023,03,26,18,16,5.90
2023,03,26,18,18,5.90
2023,03,26,18,20,5.90
2023,03,26,18,21,5.90
2023,03,26,18,23,5.90
2023,03,26,18,24,5.90
2023,03,26,18,25,5.90
2023,03,26,18,26,5.90
2023,03,26,18,27,5.90
2023,03,26,18,29,5.90
2023,03,26,18,30,5.90
2023,03,26,18,32,5.90
2023,03,26,18,33,5.90
2023,03,26,18,34,5.90
2023,03,26,18,35,5.80
2023,03,26,18,36,5.80
2023,03,26,18,38,5.80
2023,03,26,18,40,5.80
2023,03,26,18,41,5.80
2023,03,26,18,43,5.80
2023,03,26,18,44,5.80
2023,03,26,18,45,5.80
2023,03,26,18,47,5.80
2023,03,26,18,48,5.80
2023,03,26,18,49,5.80
2023,03,26,18,50,5.80
2023,03,26,18,51,5.80
2023,03,26,18,52,5.80
2023,03,26,18,53,5.80
2023,03,26,18,54,5.80
2023,03,26,18,55,5.90
2023,03,26,18,57,5.90
2023,03,26,18,58,5.90
2023,03,26,18,59,5.90
2023,03,26,19,00,5.90
2023,03,26,19,01,5.90
2023,03,26,19,03,5.90
2023,03,26,19,04,5.90
2023,03,26,19,05,5.90
2023,03,26,19,06,5.90
2023,03,26,19,07,5.90
2023,03,26,19,09,5.90
2023,03,26,19,10,5.90
2023,03,26,19,11,5.90
2023,03,26,19,12,5.90
2023,03,26,19,13,5.90
2023,03,26,19,15,5.90
2023,03,26,19,16,5.90
2023,03,26,19,17,5.80
2023,03,26,19,18,5.80
2023,03,26,19,19,5.80
2023,03,26,19,20,5.80
2023,03,26,19,21,5.80
2023,03,26,19,22,5.80
2023,03,26,19,24,5.80
2023,03,26,19,25,5.80
2023,03,26,19,26,5.80
2023,03,26,19,27,5.70
2023,03,26,19,29,5.70
2023,03,26,19,30,5.70
2023,03,26,19,31,5.70
2023,03,26,19,32,5.60
2023,03,26,19,33,5.60
2023,03,26,19,34,5.60
2023,03,26,19,35,5.60
2023,03,26,19,36,5.60
2023,03,26,19,38,5.50
2023,03,26,19,39,5.50
2023,03,26,19,41,5.50
2023,03,26,19,42,5.40
2023,03,26,19,43,5.40
2023,03,26,19,44,5.40
2023,03,26,19,45,5.40
2023,03,26,19,47,5.40
2023,03,26,19,48,5.30
2023,03,26,19,49,5.30
2023,03,26,19,50,5.30
2023,03,26,19,52,5.30
2023,03,26,19,53,5.30
2023,03,26,19,54,5.20
2023,03,26,19,55,5.20
2023,03,26,19,56,5.20
2023,03,26,19,59,5.10
2023,03,26,20,00,5.10
2023,03,26,20,01,5.10
2023,03,26,20,02,5.10
2023,03,26,20,04,5.10
2023,03,26,20,05,5.10
2023,03,26,20,06,5.10
2023,03,26,20,07,5.00
2023,03,26,20,09,5.00
2023,03,26,20,10,5.00
2023,03,26,20,11,4.90
2023,03,26,20,13,4.90
2023,03,26,20,14,4.90
2023,03,26,20,15,4.90
2023,03,26,20,16,4.90
2023,03,26,20,17,4.90
2023,03,26,20,18,4.80
2023,03,26,20,19,4.80
2023,03,26,20,20,4.80
2023,03,26,20,21,4.80
2023,03,26,20,22,4.80
2023,03,26,20,23,4.80
2023,03,26,20,24,4.80
2023,03,26,20,25,4.80
2023,03,26,20,26,4.80
2023,03,26,20,27,4.80
2023,03,26,20,28,4.90
2023,03,26,20,30,4.90
2023,03,26,20,31,4.90
2023,03,26,20,32,4.90
2023,03,26,20,33,4.90
2023,03,26,20,34,4.90
2023,03,26,20,36,4.90
2023,03,26,20,37,4.90
2023,03,26,20,38,4.90
2023,03,26,20,39,4.90
2023,03,26,20,40,4.90
2023,03,26,20,41,4.90
2023,03,26,20,42,4.80
2023,03,26,20,43,4.80
2023,03,26,20,44,4.80
2023,03,26,20,45,4.80
2023,03,26,20,46,4.80
2023,03,26,20,47,4.70
2023,03,26,20,48,4.70
2023,03,26,20,50,4.60
2023,03,26,20,53,4.50
2023,03,26,20,54,4.40
2023,03,26,20,55,4.40
2023,03,26,20,56,4.40
2023,03,26,20,57,4.30
2023,03,26,20,58,4.30
2023,03,26,20,59,4.30
2023,03,26,21,00,4.30
2023,03,26,21,01,4.30
2023,03,26,21,03,4.30
2023,03,26,21,05,4.30
2023,03,26,21,06,4.30
2023,03,26,21,07,4.30
2023,03,26,21,09,4.30
2023,03,26,21,10,4.30
2023,03,26,21,11,4.30
2023,03,26,21,12,4.30
2023,03,26,21,13,4.20
2023,03,26,21,14,4.20
2023,03,26,21,15,4.20
2023,03,26,21,16,4.20
2023,03,26,21,17,4.20
2023,03,26,21,18,4.20
2023,03,26,21,20,4.20
2023,03,26,21,21,4.20
2023,03,26,21,22,4.20
2023,03,26,21,23,4.20
2023,03,26,21,25,4.20
2023,03,26,21,26,4.20